Regional Weather Roundup
Issued by NWS

Home | Current Version | Previous Version | Text Only | Print | Product List | Glossary On
Versions: 1 2 3 4 5 6 7 8 9 10 11 12 13 14 15 16 17 18 19 20 21 22 23 24 25 26 27 28 29 30 31 32 33 34 35 36 37 38 39 40 41 42 43 44 45 46 47 48 49 50
577
ASUS46 KSEW 241010
RWRWA

WASHINGTON REGIONAL WEATHER ROUNDUP
NATIONAL WEATHER SERVICE SEATTLE WA
300 AM PDT TUE MAY 24 2016

NOTE:"FAIR" INDICATES FEW OR NO CLOUDS BELOW 12,000 FEET WITH NO
SIGNIFICANT WEATHER AND/OR OBSTRUCTIONS TO VISIBILITY.

WAZ505-507>509-241100-
SEATTLE, TACOMA, EVERETT, AND VICINITY

CITY           SKY/WX    TMP DP  RH WIND       PRES   REMARKS
EVERETT        CLOUDY    54  47  77 N3        29.95S
BOEING FIELD   CLOUDY    58  50  75 NE5       29.95R
RENTON         CLOUDY    56  50  80 CALM      29.94S
SEATAC AIRPORT CLOUDY    57  49  74 NE8       29.95S
JBLM-MCCHORD   CLOUDY    56  54  92 VRB2      29.94S
PUYALLUP       CLOUDY    54  54 100 CALM      29.95S
BREMERTON      CLOUDY    54  52  94 CALM      29.97S
JBLM-FT LEWIS  CLOUDY    56  52  86 W2        29.94S
TACOMA NARROWS CLOUDY    56  48  74 CALM      29.95R
$$

WAZ001-503-506-510-514-515-241100-
NORTH INTERIOR

CITY           SKY/WX    TMP DP  RH WIND       PRES   REMARKS
BELLINGHAM     CLOUDY    56  49  77 S5        29.93R
FRIDAY HARBOR  CLOUDY    52  48  86 SW5       29.94S
EASTSOUND      MOCLDY    54  48  82 S6        29.92R
PORT ANGELES   CLOUDY    50  47  89 W6        29.96R
EDIZ HOOK      CLOUDY    52  47  85 W7        29.96R
PORT TOWNSEND  CLOUDY    50  50 100 CALM      29.96R
NAS WHIDBEY    CLOUDY    55  49  80 SW9       29.97F
ARLINGTON      CLOUDY    54  46  76 N3        29.97S
BURLINGTON     CLOUDY    54  50  87 SE3       29.95S
$$

WAZ020-022-039-040-504-511-512-241100-
SOUTHWEST INTERIOR

CITY           SKY/WX    TMP DP  RH WIND       PRES   REMARKS
SHELTON        MOCLDY    50  48  93 W6        29.93S FOG
OLYMPIA        PTCLDY    52  49  89 CALM      29.95S
CHEHALIS       FAIR      52  50  93 SW5       29.96S
KELSO          CLOUDY    55  48  76 CALM      29.99S
VANCOUVER      CLOUDY    54  50  86 CALM      29.95R
SCAPPOOSE, OR  CLOUDY    52  49  89 CALM      29.94S
PORTLAND, OR   MOCLDY    56  50  80 W3        29.95S
$$

WAZ021-516-517-241100-
WASHINGTON COAST

CITY           SKY/WX    TMP DP  RH WIND       PRES   REMARKS
FORKS          CLOUDY    50  48  93 CALM      29.97S
HOQUIAM        CLOUDY    52  52 100 CALM      29.97R
ASTORIA, OR    CLOUDY    51  50  96 CALM      29.97S
$$

WAZ019-023-024-040-518-519-241100-
CASCADE MOUNTAINS AND COLUMBIA GORGE

CITY           SKY/WX    TMP DP  RH WIND       PRES   REMARKS
STAMPEDE PASS  FOG       40  38  93 SW6       29.92S VSB 1/4
TROUTDALE, OR  CLOUDY    55  50  83 SW3       29.95R
THE DALLES, OR PTCLDY    57  47  69 NW10      29.88R
$$

WAZ026-027-041>044-520-521-241100-
EAST SLOPES

CITY           SKY/WX    TMP DP  RH WIND       PRES   REMARKS
OMAK           CLOUDY    53  46  77 NW5       29.83R
WENATCHEE      CLOUDY    55  40  56 NW7       29.85R
ELLENSBURG     CLEAR     51  40  65 NW14      29.85S
YAKIMA         CLEAR     48  38  68 CALM      29.86R
$$

WAZ028-034-035-241100-
COLUMBIA BASIN

CITY           SKY/WX    TMP DP  RH WIND       PRES   REMARKS
EPHRATA        CLOUDY    58  41  53 NW8       29.82R
MOSES LAKE     CLOUDY    57  43  59 W5        29.83R
PASCO          PTCLDY    50  44  80 CALM      29.86R
HERMISTON, OR  MOCLDY    53  44  71 SW8       29.86S
$$

WAZ036>038-241100-
NORTHEAST WASHINGTON

CITY           SKY/WX    TMP DP  RH WIND       PRES   REMARKS
SPOKANE GEIGER LGT RAIN  49  45  86 SE5       29.86S
SPOKANE FELTS  LGT RAIN  51  48  89 E3        29.87S
FAIRCHILD AFB  LGT RAIN  48  48 100 SE6       29.86S
COEURDALENE,ID CLOUDY    48  46  93 E3        29.85S
DEER PARK      CLOUDY    48  46  93 CALM      29.87S
$$

WAZ029>033-241100-
SOUTHEAST WASHINGTON

CITY           SKY/WX    TMP DP  RH WIND       PRES   REMARKS
PULLMAN        CLOUDY    49  43  80 E7        29.89S
LEWISTON, ID   CLOUDY    53  44  71 E7        29.87R
WALLA WALLA    MOCLDY    54  42  64 S9        29.87S
PENDLETON, OR  MOCLDY    54  41  61 S3        29.88R
$$




USA.gov is the U.S. government's official web portal to all federal, state and local government web resources and services.